Time,TemperatureF,DewpointF,PressureIn,WindDirection,WindDirectionDegrees,WindSpeedMPH,WindSpeedGustMPH,Humidity,HourlyPrecipIn,Conditions,Clouds,dailyrainin,SoftwareType,DateUTC
2013-07-04 00:08:00,74.0,73.0,30.24,SSE,148,0.0,-999.0,97,-99.99,,,0.06,weatherlink.com 1.10,2013-07-04 04:08:00,
2013-07-04 00:23:00,73.9,73.0,30.23,SSE,148,0.0,-999.0,98,-99.99,,,0.00,weatherlink.com 1.10,2013-07-04 04:23:00,
2013-07-04 00:38:00,73.9,73.0,30.23,SSE,148,0.0,-999.0,98,-99.99,,,0.00,weatherlink.com 1.10,2013-07-04 04:38:00,
2013-07-04 00:53:00,73.7,73.0,30.23,SSE,148,0.0,-999.0,98,-99.99,,,0.00,weatherlink.com 1.10,2013-07-04 04:53:00,
2013-07-04 01:08:00,73.7,73.0,30.23,SSE,148,0.0,-999.0,99,-99.99,,,0.00,weatherlink.com 1.10,2013-07-04 05:08:00,
2013-07-04 01:23:00,73.7,73.0,30.23,SSE,148,0.0,-999.0,99,-99.99,,,0.00,weatherlink.com 1.10,2013-07-04 05:23:00,
2013-07-04 01:38:00,73.7,73.0,30.23,SSE,148,1.0,-999.0,99,-99.99,,,0.00,weatherlink.com 1.10,2013-07-04 05:38:00,
2013-07-04 01:53:00,73.7,73.0,30.23,SW,234,1.0,-999.0,99,-99.99,,,0.00,weatherlink.com 1.10,2013-07-04 05:53:00,
2013-07-04 02:08:00,73.9,74.0,30.22,SW,234,0.0,-999.0,99,-99.99,,,0.00,weatherlink.com 1.10,2013-07-04 06:08:00,
2013-07-04 02:23:00,73.9,74.0,30.22,SW,234,0.0,-999.0,99,-99.99,,,0.00,weatherlink.com 1.10,2013-07-04 06:23:00,
2013-07-04 02:38:00,73.9,74.0,30.22,SW,234,0.0,-999.0,100,-99.99,,,0.00,weatherlink.com 1.10,2013-07-04 06:38:00,
2013-07-04 02:53:00,73.7,74.0,30.22,SW,234,0.0,-999.0,100,-99.99,,,0.00,weatherlink.com 1.10,2013-07-04 06:53:00,
2013-07-04 03:08:00,73.7,74.0,30.22,SW,234,0.0,-999.0,100,-99.99,,,0.00,weatherlink.com 1.10,2013-07-04 07:08:00,
2013-07-04 03:23:00,73.7,74.0,30.22,SW,233,2.0,-999.0,100,-99.99,,,0.00,weatherlink.com 1.10,2013-07-04 07:23:00,
2013-07-04 03:38:00,73.9,74.0,30.21,SW,231,0.0,-999.0,100,-99.99,,,0.00,weatherlink.com 1.10,2013-07-04 07:38:00,
2013-07-04 03:53:00,73.9,74.0,30.21,SW,222,0.0,-999.0,100,-99.99,,,0.00,weatherlink.com 1.10,2013-07-04 07:53:00,
2013-07-04 04:08:00,73.9,74.0,30.21,SW,216,0.0,-999.0,100,-99.99,,,0.00,weatherlink.com 1.10,2013-07-04 08:08:00,
2013-07-04 04:23:00,73.9,74.0,30.22,SW,216,0.0,-999.0,100,-99.99,,,0.00,weatherlink.com 1.10,2013-07-04 08:23:00,
2013-07-04 04:38:00,73.7,74.0,30.23,SW,216,0.0,-999.0,100,-99.99,,,0.00,weatherlink.com 1.10,2013-07-04 08:38:00,
2013-07-04 04:53:00,73.7,74.0,30.23,SW,216,0.0,-999.0,100,-99.99,,,0.00,weatherlink.com 1.10,2013-07-04 08:53:00,
2013-07-04 05:08:00,73.5,74.0,30.23,SW,216,0.0,-999.0,100,-99.99,,,0.00,weatherlink.com 1.10,2013-07-04 09:08:00,
2013-07-04 05:23:00,73.5,74.0,30.23,SW,216,0.0,-999.0,100,-99.99,,,0.00,weatherlink.com 1.10,2013-07-04 09:23:00,
2013-07-04 05:38:00,73.5,74.0,30.24,SE,127,0.0,-999.0,100,-99.99,,,0.00,weatherlink.com 1.10,2013-07-04 09:38:00,
2013-07-04 05:53:00,73.5,74.0,30.24,SSE,168,0.0,-999.0,100,-99.99,,,0.00,weatherlink.com 1.10,2013-07-04 09:53:00,
2013-07-04 06:08:00,73.9,74.0,30.24,SW,215,0.0,-999.0,100,-99.99,,,0.00,weatherlink.com 1.10,2013-07-04 10:08:00,
2013-07-04 06:23:00,74.2,74.0,30.24,SW,230,0.0,-999.0,100,-99.99,,,0.00,weatherlink.com 1.10,2013-07-04 10:23:00,
2013-07-04 06:38:00,74.2,74.0,30.24,SW,231,1.0,-999.0,100,-99.99,,,0.00,weatherlink.com 1.10,2013-07-04 10:38:00,
2013-07-04 06:53:00,74.4,74.0,30.24,SW,229,0.0,-999.0,100,-99.99,,,0.00,weatherlink.com 1.10,2013-07-04 10:53:00,
2013-07-04 07:08:00,74.6,74.0,30.24,SW,222,0.0,-999.0,99,-99.99,,,0.00,weatherlink.com 1.10,2013-07-04 11:08:00,
2013-07-04 07:23:00,74.9,75.0,30.25,SSW,193,0.0,-999.0,99,-99.99,,,0.00,weatherlink.com 1.10,2013-07-04 11:23:00,
2013-07-04 07:38:00,75.3,75.0,30.25,SW,214,0.0,-999.0,99,-99.99,,,0.00,weatherlink.com 1.10,2013-07-04 11:38:00,
2013-07-04 07:53:00,75.6,75.0,30.25,SSW,198,0.0,-999.0,98,-99.99,,,0.00,weatherlink.com 1.10,2013-07-04 11:53:00,
2013-07-04 08:08:00,76.3,75.0,30.26,SSW,198,5.0,-999.0,96,-99.99,,,0.00,weatherlink.com 1.10,2013-07-04 12:08:00,
2013-07-04 08:23:00,77.0,75.0,30.26,South,169,3.0,-999.0,94,-99.99,,,0.00,weatherlink.com 1.10,2013-07-04 12:23:00,
2013-07-04 08:38:00,77.4,75.0,30.26,SSE,148,0.0,-999.0,92,-99.99,,,0.00,weatherlink.com 1.10,2013-07-04 12:38:00,
2013-07-04 08:53:00,78.6,76.0,30.26,SSW,212,3.0,-999.0,90,-99.99,,,0.00,weatherlink.com 1.10,2013-07-04 12:53:00,
2013-07-04 09:08:00,78.6,75.0,30.26,SSW,196,2.0,-999.0,88,-99.99,,,0.00,weatherlink.com 1.10,2013-07-04 13:08:00,
2013-07-04 09:23:00,78.5,74.0,30.26,South,171,2.0,-999.0,87,-99.99,,,0.00,weatherlink.com 1.10,2013-07-04 13:23:00,
2013-07-04 09:38:00,79.2,74.0,30.26,South,184,6.0,-999.0,85,-99.99,,,0.00,weatherlink.com 1.10,2013-07-04 13:38:00,
2013-07-04 09:53:00,79.8,75.0,30.26,WSW,257,0.0,-999.0,84,-99.99,,,0.00,weatherlink.com 1.10,2013-07-04 13:53:00,
2013-07-04 10:08:00,80.7,75.0,30.26,SW,214,0.0,-999.0,82,-99.99,,,0.00,weatherlink.com 1.10,2013-07-04 14:08:00,
2013-07-04 10:23:00,80.1,75.0,30.26,SW,226,2.0,-999.0,84,-99.99,,,0.00,weatherlink.com 1.10,2013-07-04 14:23:00,
2013-07-04 10:38:00,81.4,75.0,30.26,SW,235,4.0,-999.0,82,-99.99,,,0.00,weatherlink.com 1.10,2013-07-04 14:38:00,
2013-07-04 10:53:00,81.8,75.0,30.26,SE,141,2.0,-999.0,80,-99.99,,,0.00,weatherlink.com 1.10,2013-07-04 14:53:00,
2013-07-04 11:08:00,80.7,74.0,30.26,SSW,200,1.0,-999.0,81,-99.99,,,0.00,weatherlink.com 1.10,2013-07-04 15:08:00,
2013-07-04 11:23:00,82.6,75.0,30.26,South,188,4.0,-999.0,78,-99.99,,,0.00,weatherlink.com 1.10,2013-07-04 15:23:00,
2013-07-04 11:38:00,82.2,75.0,30.26,South,186,0.0,-999.0,78,-99.99,,,0.00,weatherlink.com 1.10,2013-07-04 15:38:00,
2013-07-04 11:53:00,82.8,75.0,30.26,West,266,4.0,-999.0,78,-99.99,,,0.00,weatherlink.com 1.10,2013-07-04 15:53:00,
2013-07-04 12:08:00,82.8,75.0,30.26,West,260,0.0,-999.0,78,-99.99,,,0.00,weatherlink.com 1.10,2013-07-04 16:08:00,
2013-07-04 12:23:00,84.0,76.0,30.26,SSW,210,4.0,-999.0,76,-99.99,,,0.00,weatherlink.com 1.10,2013-07-04 16:23:00,
2013-07-04 12:38:00,83.8,74.0,30.25,SW,231,0.0,-999.0,73,-99.99,,,0.00,weatherlink.com 1.10,2013-07-04 16:38:00,
2013-07-04 12:53:00,84.3,75.0,30.25,West,261,2.0,-999.0,73,-99.99,,,0.00,weatherlink.com 1.10,2013-07-04 16:53:00,
2013-07-04 13:08:00,84.5,75.0,30.24,WSW,255,1.0,-999.0,74,-99.99,,,0.00,weatherlink.com 1.10,2013-07-04 17:08:00,
2013-07-04 13:23:00,85.5,75.0,30.24,SSW,200,7.0,-999.0,71,-99.99,,,0.00,weatherlink.com 1.10,2013-07-04 17:23:00,
2013-07-04 13:38:00,85.7,76.0,30.24,SW,224,1.0,-999.0,72,-99.99,,,0.00,weatherlink.com 1.10,2013-07-04 17:38:00,
2013-07-04 13:53:00,85.9,75.0,30.24,SSE,147,6.0,-999.0,70,-99.99,,,0.00,weatherlink.com 1.10,2013-07-04 17:53:00,
2013-07-04 14:08:00,85.5,75.0,30.24,SE,144,6.0,-999.0,71,-99.99,,,0.00,weatherlink.com 1.10,2013-07-04 18:08:00,
2013-07-04 14:23:00,86.3,75.0,30.23,SE,124,0.0,-999.0,69,-99.99,,,0.00,weatherlink.com 1.10,2013-07-04 18:23:00,
2013-07-04 14:38:00,86.1,74.0,30.23,SE,133,4.0,-999.0,68,-99.99,,,0.00,weatherlink.com 1.10,2013-07-04 18:38:00,
2013-07-04 14:53:00,87.2,75.0,30.23,West,270,0.0,-999.0,67,-99.99,,,0.00,weatherlink.com 1.10,2013-07-04 18:53:00,
2013-07-04 15:08:00,87.0,75.0,30.23,SW,227,1.0,-999.0,68,-99.99,,,0.00,weatherlink.com 1.10,2013-07-04 19:08:00,
2013-07-04 15:23:00,87.4,75.0,30.22,South,191,6.0,-999.0,67,-99.99,,,0.00,weatherlink.com 1.10,2013-07-04 19:23:00,
2013-07-04 15:38:00,87.4,74.0,30.21,SSE,163,9.0,-999.0,64,-99.99,,,0.00,weatherlink.com 1.10,2013-07-04 19:38:00,
2013-07-04 15:53:00,87.6,74.0,30.21,South,186,0.0,-999.0,65,-99.99,,,0.00,weatherlink.com 1.10,2013-07-04 19:53:00,
2013-07-04 16:08:00,87.4,74.0,30.21,SSE,158,4.0,-999.0,65,-99.99,,,0.00,weatherlink.com 1.10,2013-07-04 20:08:00,
2013-07-04 16:23:00,87.0,74.0,30.21,SSW,210,0.0,-999.0,65,-99.99,,,0.00,weatherlink.com 1.10,2013-07-04 20:23:00,
2013-07-04 16:38:00,87.6,73.0,30.20,SSW,200,1.0,-999.0,63,-99.99,,,0.00,weatherlink.com 1.10,2013-07-04 20:38:00,
2013-07-04 16:53:00,87.6,73.0,30.20,SSW,193,2.0,-999.0,63,-99.99,,,0.00,weatherlink.com 1.10,2013-07-04 20:53:00,
2013-07-04 17:08:00,86.5,77.0,30.19,SE,141,2.0,-999.0,73,-99.99,,,0.00,weatherlink.com 1.10,2013-07-04 21:08:00,
2013-07-04 17:23:00,85.9,76.0,30.19,SSE,154,0.0,-999.0,73,-99.99,,,0.00,weatherlink.com 1.10,2013-07-04 21:23:00,
2013-07-04 17:38:00,85.1,76.0,30.18,SSE,167,5.0,-999.0,75,-99.99,,,0.00,weatherlink.com 1.10,2013-07-04 21:38:00,
2013-07-04 17:53:00,84.5,77.0,30.18,SE,143,2.0,-999.0,77,-99.99,,,0.00,weatherlink.com 1.10,2013-07-04 21:53:00,
2013-07-04 18:08:00,84.0,76.0,30.18,SSE,158,3.0,-999.0,77,-99.99,,,0.00,weatherlink.com 1.10,2013-07-04 22:08:00,
2013-07-04 18:23:00,83.4,76.0,30.18,SE,146,10.0,-999.0,78,-99.99,,,0.00,weatherlink.com 1.10,2013-07-04 22:23:00,
2013-07-04 18:38:00,83.4,76.0,30.18,ESE,120,10.0,-999.0,78,-99.99,,,0.00,weatherlink.com 1.10,2013-07-04 22:38:00,
2013-07-04 18:53:00,83.0,76.0,30.18,SE,138,10.0,-999.0,79,-99.99,,,0.00,weatherlink.com 1.10,2013-07-04 22:53:00,
2013-07-04 19:08:00,82.6,76.0,30.18,SSE,163,0.0,-999.0,79,-99.99,,,0.00,weatherlink.com 1.10,2013-07-04 23:08:00,
2013-07-04 19:23:00,82.4,76.0,30.19,SE,131,5.0,-999.0,80,-99.99,,,0.00,weatherlink.com 1.10,2013-07-04 23:23:00,
2013-07-04 19:38:00,82.0,76.0,30.19,SSE,158,0.0,-999.0,81,-99.99,,,0.00,weatherlink.com 1.10,2013-07-04 23:38:00,
2013-07-04 19:53:00,81.6,76.0,30.20,SSE,150,3.0,-999.0,83,-99.99,,,0.00,weatherlink.com 1.10,2013-07-04 23:53:00,
2013-07-04 20:08:00,81.1,76.0,30.19,SE,143,4.0,-999.0,84,-99.99,,,0.00,weatherlink.com 1.10,2013-07-05 00:08:00,
2013-07-04 20:23:00,80.5,76.0,30.20,SE,135,2.0,-999.0,86,-99.99,,,0.00,weatherlink.com 1.10,2013-07-05 00:23:00,
2013-07-04 20:38:00,80.1,76.0,30.19,SSE,158,3.0,-999.0,87,-99.99,,,0.00,weatherlink.com 1.10,2013-07-05 00:38:00,
2013-07-04 20:53:00,79.6,76.0,30.19,SSE,153,3.0,-999.0,89,-99.99,,,0.00,weatherlink.com 1.10,2013-07-05 00:53:00,
2013-07-04 21:08:00,79.4,76.0,30.19,SE,145,0.0,-999.0,90,-99.99,,,0.00,weatherlink.com 1.10,2013-07-05 01:08:00,
2013-07-04 21:23:00,79.0,76.0,30.19,SE,135,3.0,-999.0,91,-99.99,,,0.00,weatherlink.com 1.10,2013-07-05 01:23:00,
2013-07-04 21:39:00,78.6,76.0,30.20,SSE,155,0.0,-999.0,91,-99.99,,,0.00,weatherlink.com 1.10,2013-07-05 01:39:00,
2013-07-04 21:53:00,78.5,76.0,30.21,SE,139,3.0,-999.0,91,-99.99,,,0.00,weatherlink.com 1.10,2013-07-05 01:53:00,
2013-07-04 22:08:00,78.1,75.0,30.21,South,188,1.0,-999.0,91,-99.99,,,0.00,weatherlink.com 1.10,2013-07-05 02:08:00,
2013-07-04 22:23:00,77.9,75.0,30.21,South,186,0.0,-999.0,91,-99.99,,,0.00,weatherlink.com 1.10,2013-07-05 02:23:00,
2013-07-04 22:39:00,77.6,75.0,30.22,SE,134,0.0,-999.0,90,-99.99,,,0.00,weatherlink.com 1.10,2013-07-05 02:39:00,
2013-07-04 22:54:00,77.4,74.0,30.22,South,180,0.0,-999.0,90,-99.99,,,0.00,weatherlink.com 1.10,2013-07-05 02:54:00,
2013-07-04 23:09:00,77.2,74.0,30.22,SE,139,4.0,-999.0,90,-99.99,,,0.00,weatherlink.com 1.10,2013-07-05 03:09:00,
2013-07-04 23:24:00,77.2,74.0,30.22,SSE,167,0.0,-999.0,90,-99.99,,,0.00,weatherlink.com 1.10,2013-07-05 03:24:00,
2013-07-04 23:39:00,76.8,74.0,30.22,SSE,152,0.0,-999.0,90,-99.99,,,0.00,weatherlink.com 1.10,2013-07-05 03:39:00,
2013-07-04 23:54:00,76.7,74.0,30.22,SSW,210,0.0,-999.0,91,-99.99,,,0.00,weatherlink.com 1.10,2013-07-05 03:54:00,